• In Deutschland
  • Länderverzeichnis
  • Für 7 Tage
  • Wassertemperatur
  • Satellitenkarten
  • Wetterkarte
  • Widgets
  • user-avatar
    Anmelden

    Stündliche Wetter Saurimo

    Heute, 19 August, Samstag

    Zeit Temperatur Niederschläge Wind Luftdruck Luftfeuchtigkeit
    00:00 +23°C° 0 mm 1 m/S 670 mmHg 26%
    01:00 +22°C° 0 mm 1 m/S 670 mmHg 27%
    02:00 +21°C° 0 mm 1 m/S 670 mmHg 27%
    03:00 +21°C° 0 mm 1 m/S 670 mmHg 26%
    04:00 +20°C° 0 mm 1 m/S 670 mmHg 26%
    05:00 +20°C° 0 mm 1 m/S 670 mmHg 25%
    06:00 +21°C° 0 mm 1 m/S 671 mmHg 24%
    07:00 +21°C° 0 mm 2 m/S 672 mmHg 20%
    08:00 +26°C° 0 mm 2 m/S 672 mmHg 17%
    09:00 +29°C° 0 mm 2 m/S 673 mmHg 13%
    10:00 +34°C° 0 mm 3 m/S 673 mmHg 10%
    11:00 +35°C° 0 mm 3 m/S 673 mmHg 10%
    12:00 +37°C° 0 mm 2 m/S 672 mmHg 10%
    13:00 +37°C° 0 mm 3 m/S 672 mmHg 10%
    14:00 +37°C° 0 mm 2 m/S 672 mmHg 11%
    15:00 +37°C° 0 mm 2 m/S 671 mmHg 11%
    16:00 +37°C° 0 mm 2 m/S 671 mmHg 11%
    17:00 +33°C° 0 mm 1 m/S 671 mmHg 14%
    18:00 +30°C° 0 mm 1 m/S 670 mmHg 17%
    19:00 +28°C° 0 mm 1 m/S 670 mmHg 19%
    20:00 +27°C° 0 mm 1 m/S 671 mmHg 20%
    21:00 +27°C° 0 mm 1 m/S 671 mmHg 20%
    22:00 +26°C° 0 mm 1 m/S 671 mmHg 21%
    23:00 +26°C° 0 mm 1 m/S 671 mmHg 21%

    Morgen, 20 August, Sonntag

    Zeit Temperatur Niederschläge Wind Luftdruck Luftfeuchtigkeit
    00:00 +26°C° 0 mm 1 m/S 671 mmHg 22%
    01:00 +25°C° 0 mm 1 m/S 671 mmHg 23%
    02:00 +25°C° 0,1 mm 1 m/S 671 mmHg 23%
    03:00 +24°C° 0,1 mm 1 m/S 671 mmHg 24%
    04:00 +24°C° 0,1 mm 1 m/S 671 mmHg 24%
    05:00 +24°C° 0 mm 2 m/S 671 mmHg 23%
    06:00 +24°C° 0 mm 2 m/S 672 mmHg 22%
    07:00 +25°C° 0 mm 2 m/S 672 mmHg 21%
    08:00 +28°C° 0 mm 2 m/S 673 mmHg 20%
    09:00 +31°C° 0 mm 3 m/S 673 mmHg 20%
    10:00 +35°C° 0 mm 3 m/S 674 mmHg 19%
    11:00 +35°C° 0 mm 3 m/S 673 mmHg 20%
    12:00 +35°C° 0 mm 3 m/S 672 mmHg 21%
    13:00 +35°C° 0 mm 3 m/S 672 mmHg 22%
    14:00 +35°C° 0 mm 3 m/S 671 mmHg 22%
    15:00 +35°C° 0 mm 2 m/S 671 mmHg 23%
    16:00 +35°C° 0 mm 2 m/S 671 mmHg 23%
    17:00 +32°C° 0 mm 2 m/S 671 mmHg 26%
    18:00 +30°C° 0 mm 1 m/S 671 mmHg 29%
    19:00 +28°C° 0 mm 1 m/S 671 mmHg 32%
    20:00 +28°C° 0 mm 1 m/S 671 mmHg 33%
    21:00 +27°C° 0 mm 1 m/S 671 mmHg 34%
    22:00 +26°C° 0 mm 1 m/S 671 mmHg 36%
    23:00 +25°C° 0 mm 1 m/S 671 mmHg 37%

    übermorgen, 21 August, Montag

    Zeit Temperatur Niederschläge Wind Luftdruck Luftfeuchtigkeit
    00:00 +25°C° 0 mm 1 m/S 670 mmHg 38%
    01:00 +24°C° 0 mm 1 m/S 670 mmHg 38%
    02:00 +24°C° 0 mm 1 m/S 670 mmHg 38%
    03:00 +24°C° 0 mm 1 m/S 670 mmHg 39%
    04:00 +24°C° 0 mm 2 m/S 670 mmHg 39%
    05:00 +24°C° 0 mm 2 m/S 670 mmHg 37%
    06:00 +25°C° 0 mm 2 m/S 671 mmHg 35%
    07:00 +25°C° 0 mm 3 m/S 671 mmHg 33%
    08:00 +28°C° 0 mm 3 m/S 672 mmHg 28%
    09:00 +32°C° 0 mm 4 m/S 673 mmHg 22%
    10:00 +35°C° 0 mm 4 m/S 674 mmHg 17%
    11:00 +36°C° 0 mm 4 m/S 673 mmHg 16%
    12:00 +37°C° 0 mm 3 m/S 672 mmHg 15%
    13:00 +38°C° 0 mm 3 m/S 671 mmHg 14%
    14:00 +38°C° 0 mm 3 m/S 671 mmHg 13%
    15:00 +38°C° 0 mm 3 m/S 670 mmHg 13%
    16:00 +38°C° 0 mm 3 m/S 669 mmHg 13%
    17:00 +35°C° 0 mm 2 m/S 669 mmHg 16%
    18:00 +31°C° 0 mm 2 m/S 669 mmHg 18%
    19:00 +29°C° 0 mm 2 m/S 669 mmHg 21%
    20:00 +28°C° 0 mm 2 m/S 670 mmHg 21%
    21:00 +27°C° 0 mm 2 m/S 670 mmHg 22%
    22:00 +27°C° 0 mm 3 m/S 671 mmHg 22%
    23:00 +26°C° 0 mm 3 m/S 670 mmHg 22%

    22 August, Dienstag

    Zeit Temperatur Niederschläge Wind Luftdruck Luftfeuchtigkeit
    00:00 +26°C° 0 mm 3 m/S 670 mmHg 22%
    01:00 +25°C° 0 mm 3 m/S 670 mmHg 22%
    02:00 +24°C° 0 mm 3 m/S 669 mmHg 22%
    03:00 +22°C° 0 mm 3 m/S 669 mmHg 23%
    04:00 +21°C° 0 mm 2 m/S 669 mmHg 24%
    05:00 +22°C° 0 mm 3 m/S 670 mmHg 23%
    06:00 +22°C° 0 mm 3 m/S 670 mmHg 22%
    07:00 +24°C° 0 mm 3 m/S 671 mmHg 22%
    08:00 +27°C° 0 mm 3 m/S 672 mmHg 19%
    09:00 +30°C° 0 mm 3 m/S 672 mmHg 16%
    10:00 +34°C° 0 mm 3 m/S 673 mmHg 14%
    11:00 +36°C° 0 mm 3 m/S 672 mmHg 12%
    12:00 +38°C° 0 mm 2 m/S 672 mmHg 11%
    13:00 +40°C° 0 mm 1 m/S 671 mmHg 10%
    14:00 +39°C° 0 mm 1 m/S 670 mmHg 10%
    15:00 +39°C° 0 mm 1 m/S 670 mmHg 10%
    16:00 +37°C° 0 mm 1 m/S 669 mmHg 10%
    17:00 +34°C° 0 mm 1 m/S 669 mmHg 12%
    18:00 +31°C° 0 mm 1 m/S 669 mmHg 14%
    19:00 +28°C° 0 mm 1 m/S 669 mmHg 16%
    20:00 +27°C° 0 mm 1 m/S 669 mmHg 17%
    21:00 +26°C° 0 mm 1 m/S 669 mmHg 18%
    22:00 +25°C° 0 mm 1 m/S 669 mmHg 19%
    23:00 +24°C° 0 mm 1 m/S 669 mmHg 19%

    23 August, Mittwoch

    Zeit Temperatur Niederschläge Wind Luftdruck Luftfeuchtigkeit
    00:00 +23°C° 0 mm 1 m/S 668 mmHg 20%
    01:00 +22°C° 0 mm 1 m/S 668 mmHg 20%
    02:00 +21°C° 0 mm 1 m/S 668 mmHg 21%
    03:00 +21°C° 0 mm 1 m/S 668 mmHg 22%
    04:00 +20°C° 0 mm 1 m/S 668 mmHg 23%
    05:00 +21°C° 0 mm 1 m/S 669 mmHg 22%
    06:00 +22°C° 0 mm 1 m/S 669 mmHg 21%
    07:00 +21°C° 0 mm 0 m/S 670 mmHg 19%
    08:00 +27°C° 0 mm 1 m/S 671 mmHg 17%
    09:00 +31°C° 0 mm 1 m/S 672 mmHg 15%
    10:00 +36°C° 0 mm 2 m/S 672 mmHg 13%
    11:00 +37°C° 0 mm 2 m/S 672 mmHg 12%
    12:00 +39°C° 0 mm 2 m/S 671 mmHg 11%
    13:00 +40°C° 0 mm 2 m/S 670 mmHg 10%
    14:00 +39°C° 0 mm 1 m/S 670 mmHg 10%
    15:00 +37°C° 0 mm 1 m/S 669 mmHg 11%
    16:00 +37°C° 0 mm 1 m/S 668 mmHg 11%
    17:00 +34°C° 0 mm 1 m/S 668 mmHg 14%
    18:00 +31°C° 0 mm 1 m/S 668 mmHg 17%
    19:00 +29°C° 0 mm 1 m/S 668 mmHg 20%
    20:00 +28°C° 0 mm 1 m/S 669 mmHg 24%
    21:00 +27°C° 0 mm 1 m/S 669 mmHg 27%
    22:00 +26°C° 0 mm 1 m/S 669 mmHg 30%
    23:00 +25°C° 0 mm 1 m/S 668 mmHg 34%

    24 August, Donnerstag

    Zeit Temperatur Niederschläge Wind Luftdruck Luftfeuchtigkeit
    00:00 +24°C° 0 mm 1 m/S 668 mmHg 37%
    01:00 +24°C° 0 mm 1 m/S 668 mmHg 41%
    02:00 +23°C° 0 mm 1 m/S 668 mmHg 44%
    03:00 +23°C° 0 mm 1 m/S 668 mmHg 47%
    04:00 +22°C° 0 mm 1 m/S 668 mmHg 50%
    05:00 +23°C° 0 mm 2 m/S 669 mmHg 49%
    06:00 +24°C° 0 mm 3 m/S 670 mmHg 49%
    07:00 +25°C° 0 mm 4 m/S 670 mmHg 48%
    08:00 +28°C° 0 mm 3 m/S 671 mmHg 40%
    09:00 +31°C° 0 mm 3 m/S 671 mmHg 33%
    10:00 +35°C° 0 mm 3 m/S 672 mmHg 25%
    11:00 +37°C° 0 mm 2 m/S 671 mmHg 21%
    12:00 +40°C° 0 mm 1 m/S 671 mmHg 17%
    13:00 +42°C° 0 mm 1 m/S 671 mmHg 13%
    14:00 +40°C° 0 mm 1 m/S 670 mmHg 14%
    15:00 +37°C° 0 mm 1 m/S 669 mmHg 16%
    16:00 +35°C° 0 mm 1 m/S 669 mmHg 18%
    17:00 +33°C° 0 mm 1 m/S 669 mmHg 21%
    18:00 +31°C° 0 mm 1 m/S 669 mmHg 23%
    19:00 +29°C° 0 mm 1 m/S 669 mmHg 26%
    20:00 +28°C° 0 mm 1 m/S 669 mmHg 29%
    21:00 +27°C° 0 mm 1 m/S 669 mmHg 32%
    22:00 +26°C° 0 mm 1 m/S 669 mmHg 35%
    23:00 +25°C° 0 mm 1 m/S 669 mmHg 37%
    Mehr zeigen